TimeCDT,TemperatureF,Dew PointF,Humidity,Sea Level PressureIn,VisibilityMPH,Wind Direction,Wind SpeedMPH,Gust SpeedMPH,PrecipitationIn,Events,Conditions,WindDirDegrees,DateUTC
12:15 AM,42.8,26.6,53,30.33,10.0,Calm,Calm,-,N/A,,Partly Cloudy,0,2013-03-28 05:15:00
12:35 AM,42.8,26.6,53,30.33,10.0,Calm,Calm,-,N/A,,Mostly Cloudy,0,2013-03-28 05:35:00
12:55 AM,42.8,26.6,53,30.34,10.0,Calm,Calm,-,N/A,,Mostly Cloudy,0,2013-03-28 05:55:00
1:15 AM,42.8,26.6,53,30.34,10.0,Calm,Calm,-,N/A,,Overcast,0,2013-03-28 06:15:00
1:35 AM,42.8,26.6,53,30.34,10.0,Calm,Calm,-,N/A,,Overcast,0,2013-03-28 06:35:00
1:55 AM,42.8,26.6,53,30.34,10.0,Calm,Calm,-,N/A,,Scattered Clouds,0,2013-03-28 06:55:00
2:15 AM,42.8,26.6,53,30.35,10.0,ENE,3.5,-,N/A,,Mostly Cloudy,70,2013-03-28 07:15:00
2:35 AM,42.8,26.6,53,30.35,10.0,ENE,3.5,-,N/A,,Overcast,70,2013-03-28 07:35:00
2:55 AM,41.0,26.6,57,30.34,10.0,ENE,3.5,-,N/A,,Overcast,70,2013-03-28 07:55:00
3:15 AM,41.0,26.6,57,30.34,10.0,Calm,Calm,-,N/A,,Overcast,0,2013-03-28 08:15:00
3:35 AM,39.2,26.6,61,30.34,10.0,Calm,Calm,-,N/A,,Scattered Clouds,0,2013-03-28 08:35:00
3:55 AM,39.2,26.6,61,30.33,10.0,East,3.5,-,N/A,,Mostly Cloudy,100,2013-03-28 08:55:00
4:15 AM,39.2,24.8,56,30.33,10.0,Calm,Calm,-,N/A,,Overcast,0,2013-03-28 09:15:00
4:35 AM,39.2,26.6,61,30.33,10.0,Calm,Calm,-,N/A,,Overcast,0,2013-03-28 09:35:00
4:55 AM,39.2,28.4,65,30.33,10.0,SE,4.6,-,N/A,,Overcast,140,2013-03-28 09:55:00
5:15 AM,41.0,26.6,57,30.33,10.0,ESE,4.6,-,N/A,,Overcast,120,2013-03-28 10:15:00
5:35 AM,41.0,26.6,57,30.33,10.0,SE,3.5,-,N/A,,Overcast,130,2013-03-28 10:35:00
5:55 AM,41.0,26.6,57,30.34,10.0,NE,4.6,-,N/A,,Overcast,50,2013-03-28 10:55:00
6:15 AM,39.2,28.4,65,30.34,10.0,ENE,5.8,-,N/A,,Overcast,60,2013-03-28 11:15:00
6:35 AM,39.2,26.6,61,30.34,10.0,ESE,3.5,-,N/A,,Overcast,110,2013-03-28 11:35:00
6:55 AM,39.2,26.6,61,30.35,10.0,Calm,Calm,-,N/A,,Overcast,0,2013-03-28 11:55:00
7:15 AM,39.2,26.6,61,30.35,10.0,SSE,3.5,-,N/A,,Overcast,150,2013-03-28 12:15:00
7:35 AM,42.8,26.6,53,30.35,10.0,SSE,5.8,-,N/A,,Overcast,150,2013-03-28 12:35:00
7:55 AM,42.8,24.8,49,30.36,10.0,SSE,3.5,-,N/A,,Overcast,160,2013-03-28 12:55:00
8:15 AM,44.6,26.6,49,30.37,10.0,SE,4.6,-,N/A,,Partly Cloudy,130,2013-03-28 13:15:00
8:35 AM,44.6,26.6,49,30.37,10.0,SE,4.6,-,N/A,,Clear,130,2013-03-28 13:35:00
8:55 AM,46.4,28.4,50,30.37,10.0,SE,5.8,-,N/A,,Clear,130,2013-03-28 13:55:00
9:15 AM,48.2,28.4,46,30.38,10.0,SE,5.8,-,N/A,,Clear,140,2013-03-28 14:15:00
9:35 AM,48.2,28.4,46,30.38,10.0,SE,6.9,-,N/A,,Clear,140,2013-03-28 14:35:00
9:55 AM,51.8,30.2,44,30.38,10.0,SE,6.9,-,N/A,,Clear,140,2013-03-28 14:55:00
10:15 AM,53.6,30.2,41,30.38,10.0,South,6.9,-,N/A,,Scattered Clouds,170,2013-03-28 15:15:00
10:35 AM,53.6,30.2,41,30.38,10.0,SE,6.9,-,N/A,,Scattered Clouds,130,2013-03-28 15:35:00
10:55 AM,55.4,30.2,38,30.38,10.0,SE,6.9,-,N/A,,Partly Cloudy,140,2013-03-28 15:55:00
11:15 AM,55.4,30.2,38,30.37,10.0,ESE,6.9,-,N/A,,Scattered Clouds,120,2013-03-28 16:15:00
11:35 AM,55.4,30.2,38,30.38,10.0,SW,4.6,-,N/A,,Scattered Clouds,220,2013-03-28 16:35:00
11:55 AM,57.2,32.0,38,30.37,10.0,SSE,3.5,-,N/A,,Mostly Cloudy,160,2013-03-28 16:55:00
12:15 PM,59.0,32.0,36,30.37,10.0,SSW,8.1,-,N/A,,Partly Cloudy,210,2013-03-28 17:15:00
12:35 PM,59.0,32.0,36,30.36,10.0,Calm,Calm,-,N/A,,Clear,0,2013-03-28 17:35:00
12:55 PM,60.8,32.0,34,30.35,10.0,SSE,5.8,-,N/A,,Clear,150,2013-03-28 17:55:00
1:15 PM,60.8,33.8,36,30.35,10.0,SE,6.9,-,N/A,,Partly Cloudy,130,2013-03-28 18:15:00
1:35 PM,60.8,33.8,36,30.34,10.0,Calm,Calm,-,N/A,,Scattered Clouds,0,2013-03-28 18:35:00
1:55 PM,60.8,32.0,34,30.32,10.0,ESE,5.8,-,N/A,,Overcast,110,2013-03-28 18:55:00
2:15 PM,60.8,32.0,34,30.32,10.0,SSE,5.8,-,N/A,,Mostly Cloudy,150,2013-03-28 19:15:00
2:35 PM,60.8,32.0,34,30.31,10.0,Calm,Calm,-,N/A,,Overcast,0,2013-03-28 19:35:00
2:55 PM,60.8,32.0,34,30.30,10.0,SSE,5.8,-,N/A,,Overcast,160,2013-03-28 19:55:00
3:15 PM,60.8,30.2,31,30.29,8.0,SSE,4.6,-,N/A,,Overcast,150,2013-03-28 20:15:00
3:35 PM,60.8,30.2,31,30.28,10.0,SSE,6.9,-,N/A,,Overcast,160,2013-03-28 20:35:00
3:55 PM,62.6,32.0,32,30.27,10.0,SSE,4.6,-,N/A,,Mostly Cloudy,160,2013-03-28 20:55:00
4:15 PM,62.6,32.0,32,30.27,10.0,ESE,9.2,-,N/A,,Partly Cloudy,120,2013-03-28 21:15:00
4:35 PM,62.6,33.8,34,30.26,10.0,ESE,8.1,-,N/A,,Clear,110,2013-03-28 21:35:00
4:55 PM,60.8,32.0,34,30.26,10.0,East,9.2,-,N/A,,Mostly Cloudy,100,2013-03-28 21:55:00
5:15 PM,62.6,32.0,32,30.26,10.0,East,8.1,-,N/A,,Overcast,80,2013-03-28 22:15:00
5:35 PM,62.6,32.0,32,30.25,10.0,East,9.2,-,N/A,,Mostly Cloudy,100,2013-03-28 22:35:00
5:55 PM,60.8,32.0,34,30.26,10.0,East,4.6,-,N/A,,Mostly Cloudy,100,2013-03-28 22:55:00
6:15 PM,60.8,30.2,31,30.26,10.0,ESE,8.1,-,N/A,,Overcast,110,2013-03-28 23:15:00
6:35 PM,60.8,32.0,34,30.25,10.0,ESE,8.1,-,N/A,,Overcast,110,2013-03-28 23:35:00
6:55 PM,59.0,30.2,34,30.26,10.0,ESE,5.8,-,N/A,,Overcast,110,2013-03-28 23:55:00
7:15 PM,57.2,30.2,36,30.26,10.0,East,5.8,-,N/A,,Mostly Cloudy,100,2013-03-29 00:15:00
7:35 PM,57.2,30.2,36,30.26,10.0,ESE,5.8,-,N/A,,Scattered Clouds,110,2013-03-29 00:35:00
7:55 PM,57.2,30.2,36,30.26,10.0,ESE,5.8,-,N/A,,Overcast,110,2013-03-29 00:55:00
8:15 PM,55.4,30.2,38,30.25,10.0,ESE,5.8,-,N/A,,Overcast,120,2013-03-29 01:15:00
8:35 PM,55.4,30.2,38,30.25,10.0,ESE,6.9,-,N/A,,Mostly Cloudy,120,2013-03-29 01:35:00
8:55 PM,55.4,30.2,38,30.25,10.0,ESE,4.6,-,N/A,,Scattered Clouds,110,2013-03-29 01:55:00
9:15 PM,55.4,30.2,38,30.26,10.0,East,4.6,-,N/A,,Overcast,90,2013-03-29 02:15:00
9:35 PM,53.6,30.2,41,30.26,10.0,East,4.6,-,N/A,,Mostly Cloudy,100,2013-03-29 02:35:00
9:55 PM,51.8,30.2,44,30.26,10.0,ESE,4.6,-,N/A,,Overcast,120,2013-03-29 02:55:00
10:15 PM,51.8,30.2,44,30.26,10.0,ESE,3.5,-,N/A,,Overcast,120,2013-03-29 03:15:00
10:35 PM,53.6,30.2,41,30.26,10.0,SE,3.5,-,N/A,,Overcast,130,2013-03-29 03:35:00
10:55 PM,53.6,30.2,41,30.27,10.0,Calm,Calm,-,N/A,,Overcast,0,2013-03-29 03:55:00
11:15 PM,51.8,30.2,44,30.27,10.0,ENE,3.5,-,N/A,,Overcast,60,2013-03-29 04:15:00
11:35 PM,51.8,30.2,44,30.27,10.0,ENE,4.6,-,N/A,,Overcast,70,2013-03-29 04:35:00
11:55 PM,50.0,30.2,47,30.27,10.0,East,5.8,-,N/A,,Mostly Cloudy,90,2013-03-29 04:55:00